Time,TemperatureF,DewpointF,PressureIn,WindDirection,WindDirectionDegrees,WindSpeedMPH,WindSpeedGustMPH,Humidity,HourlyPrecipIn,Conditions,Clouds,dailyrainin,SoftwareType,DateUTC
2013-04-01 00:03:00,50.0,47.0,-100.00,WSW,243,4.0,-999.0,88,-99.99,,,-99.99,,2013-04-01 04:03:00,
2013-04-01 00:14:00,50.0,47.0,-100.00,WSW,243,4.0,-999.0,88,-99.99,,,-99.99,,2013-04-01 04:14:00,
2013-04-01 00:24:00,50.0,47.0,-100.00,WSW,242,5.0,-999.0,88,-99.99,,,-99.99,,2013-04-01 04:24:00,
2013-04-01 00:33:00,50.0,47.0,-100.00,WSW,252,3.0,-999.0,89,-99.99,,,-99.99,,2013-04-01 04:33:00,
2013-04-01 00:43:00,50.0,47.0,-100.00,WSW,252,3.0,-999.0,89,-99.99,,,-99.99,,2013-04-01 04:43:00,
2013-04-01 00:53:00,50.0,47.0,-100.00,West,259,4.0,-999.0,89,-99.99,,,-99.99,,2013-04-01 04:53:00,
2013-04-01 01:03:00,49.0,47.0,-100.00,WSW,251,4.0,-999.0,90,-99.99,,,-99.99,,2013-04-01 05:03:00,
2013-04-01 01:12:00,49.0,47.0,-100.00,WSW,251,4.0,-999.0,90,-99.99,,,-99.99,,2013-04-01 05:12:00,
2013-04-01 01:22:00,49.0,47.0,-100.00,SW,234,3.0,-999.0,90,-99.99,,,-99.99,,2013-04-01 05:22:00,
2013-04-01 01:32:00,49.0,47.0,-100.00,SW,234,3.0,-999.0,90,-99.99,,,-99.99,,2013-04-01 05:32:00,
2013-04-01 01:43:00,49.0,47.0,-100.00,SW,234,3.0,-999.0,90,-99.99,,,-99.99,,2013-04-01 05:43:00,
2013-04-01 01:53:00,50.0,47.0,-100.00,West,275,1.0,-999.0,89,-99.99,,,-99.99,,2013-04-01 05:53:00,
2013-04-01 02:02:00,50.0,47.0,-100.00,West,275,1.0,-999.0,89,-99.99,,,-99.99,,2013-04-01 06:02:00,
2013-04-01 02:13:00,50.0,47.0,-100.00,West,275,1.0,-999.0,89,-99.99,,,-99.99,,2013-04-01 06:13:00,
2013-04-01 02:23:00,49.0,46.0,-100.00,WSW,248,2.0,-999.0,89,-99.99,,,-99.99,,2013-04-01 06:23:00,
2013-04-01 02:33:00,49.0,46.0,-100.00,WSW,248,2.0,-999.0,89,-99.99,,,-99.99,,2013-04-01 06:33:00,
2013-04-01 02:43:00,49.0,46.0,-100.00,WSW,248,2.0,-999.0,89,-99.99,,,-99.99,,2013-04-01 06:43:00,
2013-04-01 02:53:00,49.0,47.0,-100.00,SW,225,2.0,-999.0,91,-99.99,,,-99.99,,2013-04-01 06:53:00,
2013-04-01 03:02:00,49.0,47.0,-100.00,SW,225,2.0,-999.0,91,-99.99,,,-99.99,,2013-04-01 07:02:00,
2013-04-01 03:13:00,49.0,47.0,-100.00,SW,225,2.0,-999.0,91,-99.99,,,-99.99,,2013-04-01 07:13:00,
2013-04-01 03:22:00,48.0,46.0,-100.00,West,260,4.0,-999.0,92,-99.99,,,-99.99,,2013-04-01 07:22:00,
2013-04-01 03:30:00,49.0,46.0,-100.00,SW,223,2.0,-999.0,91,-99.99,,,-99.99,,2013-04-01 07:30:00,
2013-04-01 03:32:00,48.0,46.0,-100.00,West,260,4.0,-999.0,92,-99.99,,,-99.99,,2013-04-01 07:32:00,
2013-04-01 03:43:00,48.0,46.0,-100.00,West,260,4.0,-999.0,92,-99.99,,,-99.99,,2013-04-01 07:43:00,
2013-04-01 03:53:00,49.0,46.0,-100.00,SW,223,2.0,-999.0,91,-99.99,,,-99.99,,2013-04-01 07:53:00,
2013-04-01 04:03:00,49.0,46.0,-100.00,SW,223,2.0,-999.0,91,-99.99,,,-99.99,,2013-04-01 08:03:00,
2013-04-01 04:12:00,49.0,46.0,-100.00,SW,223,2.0,-999.0,91,-99.99,,,-99.99,,2013-04-01 08:12:00,
2013-04-01 04:22:00,49.0,46.0,-100.00,SW,223,2.0,-999.0,91,-99.99,,,-99.99,,2013-04-01 08:22:00,
2013-04-01 04:43:00,47.0,45.0,-100.00,SW,219,3.0,-999.0,92,-99.99,,,-99.99,,2013-04-01 08:43:00,
2013-04-01 04:53:00,48.0,45.0,-100.00,West,274,2.0,-999.0,91,-99.99,,,-99.99,,2013-04-01 08:53:00,
2013-04-01 05:02:00,48.0,45.0,-100.00,West,274,2.0,-999.0,91,-99.99,,,-99.99,,2013-04-01 09:02:00,
2013-04-01 05:12:00,48.0,45.0,-100.00,West,274,2.0,-999.0,91,-99.99,,,-99.99,,2013-04-01 09:12:00,
2013-04-01 05:23:00,47.0,45.0,-100.00,WNW,292,1.0,-999.0,91,-99.99,,,-99.99,,2013-04-01 09:23:00,
2013-04-01 05:33:00,47.0,45.0,-100.00,WNW,292,1.0,-999.0,91,-99.99,,,-99.99,,2013-04-01 09:33:00,
2013-04-01 05:43:00,47.0,45.0,-100.00,WNW,292,1.0,-999.0,91,-99.99,,,-99.99,,2013-04-01 09:43:00,
2013-04-01 05:53:00,48.0,45.0,-100.00,WSW,240,2.0,-999.0,87,-99.99,,,-99.99,,2013-04-01 09:53:00,
2013-04-01 06:03:00,48.0,45.0,-100.00,WSW,240,2.0,-999.0,87,-99.99,,,-99.99,,2013-04-01 10:03:00,
2013-04-01 06:13:00,48.0,45.0,-100.00,WSW,240,2.0,-999.0,87,-99.99,,,-99.99,,2013-04-01 10:13:00,
2013-04-01 06:23:00,48.0,44.0,-100.00,SSE,155,1.0,-999.0,85,-99.99,,,-99.99,,2013-04-01 10:23:00,
2013-04-01 06:33:00,48.0,44.0,-100.00,SSE,155,1.0,-999.0,85,-99.99,,,-99.99,,2013-04-01 10:33:00,
2013-04-01 06:43:00,48.0,44.0,-100.00,SSE,155,1.0,-999.0,85,-99.99,,,-99.99,,2013-04-01 10:43:00,
2013-04-01 06:53:00,47.0,44.0,-100.00,SSW,211,4.0,-999.0,89,-99.99,,,-99.99,,2013-04-01 10:53:00,
2013-04-01 07:03:00,47.0,44.0,-100.00,SSW,211,4.0,-999.0,89,-99.99,,,-99.99,,2013-04-01 11:03:00,
2013-04-01 07:13:00,47.0,44.0,-100.00,SSW,211,4.0,-999.0,89,-99.99,,,-99.99,,2013-04-01 11:13:00,
2013-04-01 07:23:00,46.0,45.0,-100.00,South,190,3.0,-999.0,96,-99.99,,,-99.99,,2013-04-01 11:23:00,
2013-04-01 07:33:00,46.0,45.0,-100.00,SSW,201,5.0,-999.0,96,-99.99,,,-99.99,,2013-04-01 11:33:00,
2013-04-01 07:43:00,46.0,45.0,-100.00,SSW,201,5.0,-999.0,96,-99.99,,,-99.99,,2013-04-01 11:43:00,
2013-04-01 07:53:00,45.0,44.0,-100.00,SSW,195,5.0,-999.0,97,-99.99,,,-99.99,,2013-04-01 11:53:00,
2013-04-01 08:03:00,44.0,44.0,-100.00,SW,216,4.0,-999.0,98,-99.99,,,-99.99,,2013-04-01 12:03:00,
2013-04-01 08:12:00,44.0,44.0,-100.00,SW,216,4.0,-999.0,98,-99.99,,,-99.99,,2013-04-01 12:12:00,
2013-04-01 08:23:00,45.0,45.0,-100.00,SSW,200,3.0,-999.0,98,-99.99,,,-99.99,,2013-04-01 12:23:00,
2013-04-01 08:32:00,46.0,46.0,-100.00,SW,229,2.0,-999.0,98,-99.99,,,-99.99,,2013-04-01 12:32:00,
2013-04-01 08:42:00,46.0,46.0,-100.00,SW,229,2.0,-999.0,98,-99.99,,,-99.99,,2013-04-01 12:42:00,
2013-04-01 08:53:00,48.0,45.0,-100.00,WSW,251,4.0,-999.0,92,-99.99,,,-99.99,,2013-04-01 12:53:00,
2013-04-01 09:03:00,49.0,43.0,-100.00,SW,214,6.0,-999.0,78,-99.99,,,-99.99,,2013-04-01 13:03:00,
2013-04-01 09:12:00,49.0,43.0,-100.00,SW,214,6.0,-999.0,78,-99.99,,,-99.99,,2013-04-01 13:12:00,
2013-04-01 09:22:00,49.0,42.0,-100.00,SSW,202,6.0,-999.0,76,-99.99,,,-99.99,,2013-04-01 13:22:00,
2013-04-01 09:32:00,50.0,42.0,-100.00,SSW,205,5.0,-999.0,74,-99.99,,,-99.99,,2013-04-01 13:32:00,
2013-04-01 09:42:00,50.0,42.0,-100.00,SSW,205,5.0,-999.0,74,-99.99,,,-99.99,,2013-04-01 13:42:00,
2013-04-01 09:53:00,52.0,42.0,-100.00,SSW,200,6.0,-999.0,67,-99.99,,,-99.99,,2013-04-01 13:53:00,
2013-04-01 10:04:00,53.0,41.0,-100.00,SSW,200,7.0,-999.0,63,-99.99,,,-99.99,,2013-04-01 14:04:00,
2013-04-01 10:12:00,53.0,41.0,-100.00,SSW,200,7.0,-999.0,63,-99.99,,,-99.99,,2013-04-01 14:12:00,
2013-04-01 10:22:00,55.0,40.0,-100.00,SW,219,8.0,-999.0,58,-99.99,,,-99.99,,2013-04-01 14:22:00,
2013-04-01 10:33:00,56.0,39.0,-100.00,SSW,209,8.0,-999.0,52,-99.99,,,-99.99,,2013-04-01 14:33:00,
2013-04-01 10:42:00,56.0,39.0,-100.00,SSW,209,8.0,-999.0,52,-99.99,,,-99.99,,2013-04-01 14:42:00,
2013-04-01 10:53:00,56.0,39.0,-100.00,SW,214,9.0,-999.0,51,-99.99,,,-99.99,,2013-04-01 14:53:00,
2013-04-01 11:03:00,57.0,39.0,-100.00,SSW,210,10.0,-999.0,50,-99.99,,,-99.99,,2013-04-01 15:03:00,
2013-04-01 11:13:00,57.0,39.0,-100.00,SSW,210,10.0,-999.0,50,-99.99,,,-99.99,,2013-04-01 15:13:00,
2013-04-01 11:22:00,59.0,37.0,-100.00,SW,218,9.0,-999.0,44,-99.99,,,-99.99,,2013-04-01 15:22:00,
2013-04-01 11:34:00,60.0,35.0,-100.00,WSW,247,11.0,-999.0,38,-99.99,,,-99.99,,2013-04-01 15:34:00,
2013-04-01 11:43:00,60.0,35.0,-100.00,WSW,247,11.0,-999.0,38,-99.99,,,-99.99,,2013-04-01 15:43:00,
2013-04-01 11:54:00,61.0,34.0,-100.00,WSW,253,12.0,-999.0,37,-99.99,,,-99.99,,2013-04-01 15:54:00,
2013-04-01 12:03:00,61.0,34.0,-100.00,West,274,10.0,-999.0,37,-99.99,,,-99.99,,2013-04-01 16:03:00,
2013-04-01 12:13:00,61.0,34.0,-100.00,West,274,10.0,-999.0,37,-99.99,,,-99.99,,2013-04-01 16:13:00,
2013-04-01 12:23:00,61.0,35.0,-100.00,WNW,293,13.0,-999.0,37,-99.99,,,-99.99,,2013-04-01 16:23:00,
2013-04-01 12:33:00,61.0,34.0,-100.00,WNW,289,10.0,-999.0,37,-99.99,,,-99.99,,2013-04-01 16:33:00,
2013-04-01 12:43:00,61.0,34.0,-100.00,WNW,289,10.0,-999.0,37,-99.99,,,-99.99,,2013-04-01 16:43:00,
2013-04-01 12:53:00,61.0,34.0,-100.00,WNW,290,13.0,-999.0,36,-99.99,,,-99.99,,2013-04-01 16:53:00,
2013-04-01 13:03:00,62.0,35.0,-100.00,West,276,13.0,-999.0,36,-99.99,,,-99.99,,2013-04-01 17:03:00,
2013-04-01 13:12:00,62.0,35.0,-100.00,West,276,13.0,-999.0,36,-99.99,,,-99.99,,2013-04-01 17:12:00,
2013-04-01 13:23:00,62.0,34.0,-100.00,WNW,285,16.0,-999.0,35,-99.99,,,-99.99,,2013-04-01 17:23:00,
2013-04-01 13:32:00,63.0,33.0,-100.00,West,278,15.0,-999.0,33,-99.99,,,-99.99,,2013-04-01 17:32:00,
2013-04-01 13:42:00,63.0,33.0,-100.00,West,278,15.0,-999.0,33,-99.99,,,-99.99,,2013-04-01 17:42:00,
2013-04-01 13:53:00,63.0,32.0,-100.00,West,269,17.0,-999.0,30,-99.99,,,-99.99,,2013-04-01 17:53:00,
2013-04-01 14:03:00,63.0,31.0,-100.00,West,274,17.0,-999.0,30,-99.99,,,-99.99,,2013-04-01 18:03:00,
2013-04-01 14:12:00,63.0,31.0,-100.00,West,274,17.0,-999.0,30,-99.99,,,-99.99,,2013-04-01 18:12:00,
2013-04-01 14:22:00,62.0,34.0,-100.00,WNW,302,16.0,-999.0,35,-99.99,,,-99.99,,2013-04-01 18:22:00,
2013-04-01 14:33:00,60.0,34.0,-100.00,WNW,296,17.0,-999.0,37,-99.99,,,-99.99,,2013-04-01 18:33:00,
2013-04-01 14:43:00,60.0,34.0,-100.00,WNW,296,17.0,-999.0,37,-99.99,,,-99.99,,2013-04-01 18:43:00,
2013-04-01 14:53:00,60.0,34.0,-100.00,WNW,296,14.0,-999.0,38,-99.99,,,-99.99,,2013-04-01 18:53:00,
2013-04-01 15:03:00,59.0,35.0,-100.00,WNW,301,14.0,-999.0,40,-99.99,,,-99.99,,2013-04-01 19:03:00,
2013-04-01 15:13:00,59.0,35.0,-100.00,WNW,301,14.0,-999.0,40,-99.99,,,-99.99,,2013-04-01 19:13:00,
2013-04-01 15:23:00,56.0,36.0,-100.00,NW,322,18.0,-999.0,46,-99.99,,,-99.99,,2013-04-01 19:23:00,
2013-04-01 15:32:00,55.0,36.0,-100.00,NW,323,16.0,-999.0,48,-99.99,,,-99.99,,2013-04-01 19:32:00,
2013-04-01 15:42:00,55.0,36.0,-100.00,NW,323,16.0,-999.0,48,-99.99,,,-99.99,,2013-04-01 19:42:00,
2013-04-01 15:53:00,56.0,37.0,-100.00,NW,311,17.0,-999.0,48,-99.99,,,-99.99,,2013-04-01 19:53:00,
2013-04-01 16:02:00,55.0,36.0,-100.00,NW,317,19.0,-999.0,48,-99.99,,,-99.99,,2013-04-01 20:02:00,
2013-04-01 16:13:00,55.0,36.0,-100.00,NW,317,19.0,-999.0,48,-99.99,,,-99.99,,2013-04-01 20:13:00,
2013-04-01 16:23:00,55.0,33.0,-100.00,NW,312,19.0,-999.0,44,-99.99,,,-99.99,,2013-04-01 20:23:00,
2013-04-01 16:33:00,54.0,32.0,-100.00,NW,308,18.0,-999.0,42,-99.99,,,-99.99,,2013-04-01 20:33:00,
2013-04-01 16:43:00,54.0,32.0,-100.00,NW,308,18.0,-999.0,42,-99.99,,,-99.99,,2013-04-01 20:43:00,
2013-04-01 16:52:00,53.0,32.0,-100.00,NW,311,19.0,-999.0,43,-99.99,,,-99.99,,2013-04-01 20:52:00,
2013-04-01 17:02:00,52.0,31.0,-100.00,NW,305,22.0,-999.0,44,-99.99,,,-99.99,,2013-04-01 21:02:00,
2013-04-01 17:12:00,52.0,31.0,-100.00,NW,305,22.0,-999.0,44,-99.99,,,-99.99,,2013-04-01 21:12:00,
2013-04-01 17:23:00,52.0,31.0,-100.00,NW,306,18.0,-999.0,43,-99.99,,,-99.99,,2013-04-01 21:23:00,
2013-04-01 17:32:00,52.0,28.0,-100.00,NW,304,22.0,-999.0,39,-99.99,,,-99.99,,2013-04-01 21:32:00,
2013-04-01 17:43:00,52.0,28.0,-100.00,NW,304,22.0,-999.0,39,-99.99,,,-99.99,,2013-04-01 21:43:00,
2013-04-01 17:53:00,52.0,28.0,-100.00,NW,310,16.0,-999.0,39,-99.99,,,-99.99,,2013-04-01 21:53:00,
2013-04-01 18:03:00,52.0,27.0,-100.00,NW,310,20.0,-999.0,39,-99.99,,,-99.99,,2013-04-01 22:03:00,
2013-04-01 18:12:00,52.0,27.0,-100.00,NW,310,20.0,-999.0,39,-99.99,,,-99.99,,2013-04-01 22:12:00,
2013-04-01 18:23:00,51.0,25.0,-100.00,NW,313,20.0,-999.0,35,-99.99,,,-99.99,,2013-04-01 22:23:00,
2013-04-01 18:33:00,51.0,25.0,-100.00,NW,305,21.0,-999.0,35,-99.99,,,-99.99,,2013-04-01 22:33:00,
2013-04-01 18:43:00,51.0,25.0,-100.00,NW,305,21.0,-999.0,35,-99.99,,,-99.99,,2013-04-01 22:43:00,
2013-04-01 18:52:00,51.0,25.0,-100.00,NW,305,18.0,-999.0,35,-99.99,,,-99.99,,2013-04-01 22:52:00,
2013-04-01 19:02:00,50.0,26.0,-100.00,NW,317,19.0,-999.0,39,-99.99,,,-99.99,,2013-04-01 23:02:00,
2013-04-01 19:12:00,50.0,26.0,-100.00,NW,317,19.0,-999.0,39,-99.99,,,-99.99,,2013-04-01 23:12:00,
2013-04-01 19:23:00,49.0,26.0,-100.00,NW,312,17.0,-999.0,41,-99.99,,,-99.99,,2013-04-01 23:23:00,
2013-04-01 19:32:00,48.0,26.0,-100.00,NW,311,16.0,-999.0,41,-99.99,,,-99.99,,2013-04-01 23:32:00,
2013-04-01 19:43:00,48.0,26.0,-100.00,NW,311,16.0,-999.0,41,-99.99,,,-99.99,,2013-04-01 23:43:00,
2013-04-01 19:53:00,48.0,24.0,-100.00,NW,315,14.0,-999.0,39,-99.99,,,-99.99,,2013-04-01 23:53:00,
2013-04-01 20:03:00,47.0,22.0,-100.00,NW,313,13.0,-999.0,37,-99.99,,,-99.99,,2013-04-02 00:03:00,
2013-04-01 20:12:00,47.0,22.0,-100.00,NW,313,13.0,-999.0,37,-99.99,,,-99.99,,2013-04-02 00:12:00,
2013-04-01 20:22:00,47.0,21.0,-100.00,WNW,302,14.0,-999.0,35,-99.99,,,-99.99,,2013-04-02 00:22:00,
2013-04-01 20:33:00,47.0,20.0,-100.00,NW,304,14.0,-999.0,34,-99.99,,,-99.99,,2013-04-02 00:33:00,
2013-04-01 20:42:00,47.0,20.0,-100.00,NW,304,14.0,-999.0,34,-99.99,,,-99.99,,2013-04-02 00:42:00,
2013-04-01 20:53:00,47.0,20.0,-100.00,WNW,303,12.0,-999.0,35,-99.99,,,-99.99,,2013-04-02 00:53:00,
2013-04-01 21:02:00,46.0,20.0,-100.00,WNW,301,13.0,-999.0,35,-99.99,,,-99.99,,2013-04-02 01:02:00,
2013-04-01 21:12:00,46.0,20.0,-100.00,WNW,301,13.0,-999.0,35,-99.99,,,-99.99,,2013-04-02 01:12:00,
2013-04-01 21:22:00,46.0,21.0,-100.00,NW,304,11.0,-999.0,37,-99.99,,,-99.99,,2013-04-02 01:22:00,
2013-04-01 21:32:00,46.0,22.0,-100.00,NW,305,10.0,-999.0,38,-99.99,,,-99.99,,2013-04-02 01:32:00,
2013-04-01 21:43:00,46.0,22.0,-100.00,NW,305,10.0,-999.0,38,-99.99,,,-99.99,,2013-04-02 01:43:00,
2013-04-01 21:53:00,45.0,22.0,-100.00,WNW,303,9.0,-999.0,40,-99.99,,,-99.99,,2013-04-02 01:53:00,
2013-04-01 22:03:00,45.0,22.0,-100.00,WNW,299,7.0,-999.0,40,-99.99,,,-99.99,,2013-04-02 02:03:00,
2013-04-01 22:12:00,45.0,22.0,-100.00,WNW,299,7.0,-999.0,40,-99.99,,,-99.99,,2013-04-02 02:12:00,
2013-04-01 22:22:00,45.0,22.0,-100.00,NW,306,7.0,-999.0,39,-99.99,,,-99.99,,2013-04-02 02:22:00,
2013-04-01 22:32:00,45.0,21.0,-100.00,WNW,303,6.0,-999.0,39,-99.99,,,-99.99,,2013-04-02 02:32:00,
2013-04-01 22:42:00,45.0,21.0,-100.00,WNW,303,6.0,-999.0,39,-99.99,,,-99.99,,2013-04-02 02:42:00,
2013-04-01 22:53:00,44.0,22.0,-100.00,NW,308,6.0,-999.0,40,-99.99,,,-99.99,,2013-04-02 02:53:00,
2013-04-01 23:02:00,44.0,21.0,-100.00,NW,308,5.0,-999.0,40,-99.99,,,-99.99,,2013-04-02 03:02:00,
2013-04-01 23:12:00,44.0,21.0,-100.00,NW,308,5.0,-999.0,40,-99.99,,,-99.99,,2013-04-02 03:12:00,
2013-04-01 23:22:00,44.0,21.0,-100.00,NW,309,4.0,-999.0,39,-99.99,,,-99.99,,2013-04-02 03:22:00,
2013-04-01 23:33:00,44.0,19.0,-100.00,WNW,301,5.0,-999.0,37,-99.99,,,-99.99,,2013-04-02 03:33:00,
2013-04-01 23:43:00,44.0,19.0,-100.00,WNW,301,5.0,-999.0,37,-99.99,,,-99.99,,2013-04-02 03:43:00,
2013-04-01 23:53:00,43.0,18.0,-100.00,WNW,299,4.0,-999.0,36,-99.99,,,-99.99,,2013-04-02 03:53:00,